Hourly Data Report for March 21, 2015

All times are specified in Local Standard Time (LST). Add 1 hour to adjust for Daylight Saving Time where and when it is observed.

MIRAMICHI RCS
NEW BRUNSWICK

47°00'34.000" N
65°27'54.000" W
33.00 m
8100989
71744
ACQ

Download Data

Hourly Data (March 2015)
Hourly Data Report for March 21, 2015
TIME Temp Definition
°C
Dew Point Definition
°C
Rel Hum Definition
%
Wind Dir Definition
10's deg

Wind Spd Definition
km/h
Visibility Definition
km
Stn Press Definition
kPa
Hmdx Definition


Wind Chill Definition


Weather Definition


00:00 -3.6 -12.0 52 22 10   101.62   -8 LegendNANA
01:00 -4.5 -12.0 56 20 9   101.58   -8 LegendNANA
02:00 -5.0 -11.8 59 22 7   101.57   -8 LegendNANA
03:00 -5.3 -11.7 61 22 5   101.54   -8 LegendNANA
04:00 -5.5 -11.2 64 22 11   101.54   -10 LegendNANA
05:00 -4.5 -10.7 62 20 11   101.54   -9 LegendNANA
06:00 -4.5 -10.7 62 19 14   101.54   -10 LegendNANA
07:00 -4.4 -10.6 62 20 16   101.53   -10 LegendNANA
08:00 -4.3 -10.8 61 21 12   101.50   -9 LegendNANA
09:00 -2.6 -9.8 58 22 15   101.45   -8 LegendNANA
10:00 -0.8 -9.3 53 22 17   101.41   -6 LegendNANA
11:00 0.6 -9.1 48 23 23   101.34     LegendNANA
12:00 2.0 -8.0 47 21 18   101.27     LegendNANA
13:00 2.8 -7.4 47 18 10   101.18     LegendNANA
14:00 3.0 -6.9 48 17 15   101.07     LegendNANA
15:00 4.0 -6.5 46 19 14   100.95     LegendNANA
16:00 4.1 -5.9 48 19 16   100.86     LegendNANA
17:00 3.6 -5.8 50 17 14   100.78     LegendNANA
18:00 3.2 -6.3 50 17 11   100.73     LegendNANA
19:00 1.0 -5.9 60 11 16   100.67     LegendNANA
20:00 0.6 -6.1 61 12 15   100.62     LegendNANA
21:00 0.4 -6.6 60 13 13   100.52     LegendNANA
22:00 -0.7 -5.6 69 7 8   100.40   -4 LegendNANA
23:00 -0.9 -4.9 74 7 4   100.29   -2 LegendNANA

Notes on Data Quality.

Legend

  • E = Estimated
  • M = Missing
  • NA = Not Available
Date modified: